P/2008 R1 ( Garradd )

Japanese version
Home page
Total 6,336 html files since Dec. 4, 1995
Updated on October 12, 2008

---------------------------------------------------------------------

* Profile

Discovery Date September 2, 2008
Magnitude 18.5 mag
Discoverer G. J. Garradd (Siding Spring Survey)

* Orbital Elements

Epoch 2008 Aug. 2.0 TT = JDT 2454680.5
T 2008 July 25.30840 TT                                 MPC
q   1.7930540            (2000.0)            P               Q
n   0.21892421     Peri.  256.50907     +0.59325289     +0.77552236
a   2.7265085      Node    51.99556     -0.59097234     +0.60167534
e   0.3423626      Incl.   15.90286     -0.54662849     +0.19118541
P   4.50
From 22 observations 2008 July 15-Oct. 1, mean residual 0".52.

* Magnitudes Graph

        m1 = 13.5 + 5 log d + 20.0 log r(t - 50)

---------------------------------------------------------------------

The orbital elements are published on M.P.E.C. 2008-T96.
The magnitudes graphs are made with Comet for Windows.

---------------------------------------------------------------------

Copyright(C) 1995-2008 Seiichi Yoshida (comet@aerith.net). All rights reserved.